Flag for Germany Weather past 2 weeks in Alsdorf, North Rhine-Westphalia, Germany

Now
55 °F

Fog.


Feels Like: 54 °F
Forecast: 54 / 74 °F
Wind: 7 mph from East

Location: Maastricht Airport Zuid Limburg

Current Time: Sep 3, 2014 at 5:09:53 AM

Latest Report: Sep 3, 2014 at 4:25 AM


Visibility: 1 mi

Pressure: 30.18 "Hg

Humidity: 100%

Dew point: 55 °F

Location of AlsdorfLocation

Historic Weather in Alsdorf — Graph

°F

Alsdorf temperature yesterday

Maximum temperature yesterday: 72 °F (at 4:25 PM)
Minimum temperature yesterday: 55 °F (at 1:25 AM)
Average temperature yesterday: 62 °F

Past Weeks' High & Low Weather Summary

 TemperatureHumidityPressure
High72 °F (Aug 28, 5:25 PM)100% (Aug 19, 7:25 AM)30.21 "Hg (Aug 19, 7:25 AM)
Low46 °F (Aug 20, 3:25 AM)49% (Aug 21, 4:55 PM)29.59 "Hg (Aug 26, 4:25 AM)
Average58 °F83%29.98 "Hg
* Reported Aug 19 3:25 AM — Sep 3 3:55 AM, Alsdorf, Weather by CustomWeather, © 2014

Note: Actual official high and low records may vary slightly from our data, if they occured in-between our weather recording intervals... More about our weather records

Advertising

Alsdorf weather history for previous 24 hours

 ConditionsComfort  
Time TempWeatherWind HumidityBarometerVisibility
3:55 AM
Sep 3
57 °FFog.5 mph94%30.18 "Hg1 mi
3:25 AM57 °FFog.6 mph94%30.18 "Hg1 mi
2:55 AM57 °FFog.7 mph94%30.21 "Hg1 mi
2:25 AM55 °FFog.7 mph100%30.21 "Hg1 mi
1:55 AM57 °FFog.5 mph94%30.21 "Hg2 mi
1:25 AM57 °FFog.6 mph94%30.21 "Hg2 mi
12:55 AM57 °FFog.6 mph100%30.21 "Hg2 mi
12:25 AM59 °FFog.7 mph94%30.21 "Hg1 mi
11:55 PM
Sep 2
59 °FFog.7 mph94%30.21 "Hg2 mi
11:25 PM59 °FFog.6 mph94%30.21 "Hg2 mi
10:55 PM61 °FClear.6 mph88%30.21 "Hg4 mi
10:25 PM61 °FFog.8 mph88%30.21 "Hg3 mi
9:55 PM63 °FFog.7 mph88%30.21 "Hg3 mi
9:25 PM64 °FClear.7 mph83%30.21 "Hg6 mi
8:55 PM64 °FPartly sunny.9 mph83%30.21 "Hg4 mi
8:25 PM64 °FClear.8 mph83%30.18 "HgN/A
7:55 PM64 °FClear.8 mph83%30.18 "HgN/A
7:25 PM66 °FScattered clouds.9 mph73%30.18 "HgN/A
6:55 PM68 °FClear.8 mph64%30.18 "HgN/A
6:25 PM66 °FPartly sunny.9 mph68%30.18 "HgN/A
5:55 PM68 °FBroken clouds.9 mph60%30.18 "HgN/A
5:25 PM68 °FClear.8 mph64%30.18 "HgN/A
4:55 PM68 °FPassing clouds.9 mph64%30.18 "HgN/A
4:25 PM72 °FClear.8 mph57%30.18 "HgN/A
3:55 PM70 °FPassing clouds.8 mph57%30.18 "HgN/A
3:25 PM68 °FScattered clouds.6 mph60%30.18 "HgN/A
2:55 PM70 °FPartly sunny.9 mph57%30.18 "HgN/A
2:25 PM68 °FPartly sunny.8 mph60%30.18 "HgN/A
1:55 PM68 °FPassing clouds.8 mph60%30.18 "HgN/A
1:25 PM68 °FPartly sunny.7 mph64%30.18 "HgN/A
12:55 PM66 °FPartly sunny.5 mph64%30.18 "HgN/A
12:25 PM66 °FPassing clouds.6 mph64%30.18 "HgN/A
11:55 AM68 °FPassing clouds.5 mph60%30.18 "HgN/A
11:25 AM66 °FMild.5 mph64%30.18 "HgN/A
10:55 AM64 °FMild.2 mph78%30.18 "HgN/A
10:25 AM63 °FMild.1 mph83%30.18 "HgN/A
9:55 AM63 °FBroken clouds.1 mph83%30.18 "HgN/A
9:25 AM61 °FMostly cloudy.2 mph83%30.18 "HgN/A
8:55 AM59 °FPartly sunny.2 mph88%30.18 "HgN/A
8:25 AM59 °FPartly sunny.2 mph82%30.15 "HgN/A
7:55 AM57 °FClear.2 mph94%30.15 "HgN/A
7:25 AM57 °FClear.2 mph88%30.15 "HgN/A
6:55 AM57 °FClear.2 mph88%30.15 "HgN/A
6:25 AM57 °FClear.2 mph88%30.15 "HgN/A
5:55 AM57 °FClear.5 mph88%30.12 "HgN/A
5:25 AM55 °FClear.5 mph94%30.15 "HgN/A
Weather by CustomWeather, © 2014

See weather overviewHow to use our weather pages